timestamp,wind_dir_avg,wind_spd_avg,wind_spd_max_dir,wind_spd_gust,battery_voltage,lat,long
2022-11-17 00:04:00+00:00,345.0,2.63,344.0,3.16,12.41,47.59359,-54.27349
2022-11-17 00:14:00+00:00,358.0,2.25,345.0,2.73,12.41,47.59359,-54.27349
2022-11-17 00:24:00+00:00,22.0,2.21,41.0,2.96,12.41,47.59359,-54.27349
2022-11-17 00:34:00+00:00,357.0,2.2,32.0,2.83,12.41,47.59359,-54.27349
2022-11-17 00:44:00+00:00,319.0,2.18,309.0,3.19,12.41,47.59359,-54.27349
2022-11-17 00:54:00+00:00,336.0,2.84,324.0,3.8,12.41,47.59359,-54.27349
2022-11-17 01:04:00+00:00,341.0,3.54,326.0,4.39,12.41,47.59359,-54.27349
2022-11-17 01:14:00+00:00,335.0,3.65,331.0,4.26,12.41,47.59359,-54.27349
2022-11-17 01:24:00+00:00,337.0,3.05,333.0,3.87,12.41,47.59359,-54.27349
2022-11-17 01:34:00+00:00,328.0,2.74,320.0,3.8,12.41,47.59359,-54.27349
2022-11-17 01:44:00+00:00,331.0,2.73,316.0,3.61,12.41,47.59359,-54.27349
2022-11-17 01:54:00+00:00,9.0,3.5,6.0,4.27,12.41,47.59359,-54.27349
2022-11-17 02:04:00+00:00,348.0,1.41,299.0,2.58,12.41,47.59359,-54.27349
2022-11-17 02:14:01+00:00,357.0,1.96,10.0,2.46,12.33,47.59359,-54.27349
2022-11-17 02:24:01+00:00,48.0,0.89,55.0,1.12,12.33,47.59359,-54.27349
2022-11-17 02:34:01+00:00,276.0,1.44,277.0,2.67,12.33,47.59359,-54.27349
2022-11-17 02:44:01+00:00,305.0,2.19,309.0,2.7,12.33,47.59359,-54.27349
2022-11-17 02:54:01+00:00,56.0,3.09,57.0,4.35,12.33,47.59359,-54.27349
2022-11-17 03:04:01+00:00,280.0,1.81,281.0,2.58,12.33,47.59359,-54.27349
2022-11-17 03:14:01+00:00,245.0,0.94,81.0,3.63,12.33,47.59359,-54.27349
2022-11-17 03:24:01+00:00,92.0,0.51,95.0,3.92,12.33,47.59359,-54.27349
2022-11-17 03:34:01+00:00,237.0,0.78,92.0,3.38,12.33,47.59359,-54.27349
2022-11-17 03:44:01+00:00,194.0,0.9,81.0,4.1,12.33,47.59359,-54.27349
2022-11-17 03:54:01+00:00,272.0,0.74,80.0,3.51,12.33,47.59359,-54.27349
2022-11-17 04:04:01+00:00,133.0,2.97,125.0,4.21,12.33,47.59359,-54.27349
2022-11-17 04:14:01+00:00,169.0,2.4,131.0,4.33,12.33,47.59359,-54.27349
2022-11-17 04:24:01+00:00,155.0,2.08,150.0,3.07,12.33,47.59359,-54.27349
2022-11-17 04:34:01+00:00,123.0,2.54,127.0,3.59,12.33,47.59359,-54.27349
2022-11-17 04:44:01+00:00,95.0,3.08,104.0,4.53,12.33,47.59359,-54.27349
2022-11-17 04:54:01+00:00,82.0,2.41,87.0,3.84,12.33,47.59359,-54.27349
2022-11-17 05:04:01+00:00,121.0,2.64,132.0,4.05,12.33,47.59359,-54.27349
2022-11-17 05:14:00+00:00,91.0,2.58,99.0,4.53,12.33,47.59359,-54.27349
2022-11-17 05:24:00+00:00,94.0,3.04,101.0,4.52,12.33,47.59359,-54.27349
2022-11-17 05:34:00+00:00,101.0,3.27,85.0,6.32,12.33,47.59359,-54.27349
2022-11-17 05:44:00+00:00,125.0,4.39,119.0,5.39,12.33,47.59359,-54.27349
2022-11-17 05:54:00+00:00,161.0,6.06,153.0,6.89,12.33,47.59359,-54.27349
2022-11-17 06:04:00+00:00,158.0,6.5,154.0,8.06,12.33,47.59359,-54.27349
2022-11-17 06:14:00+00:00,150.0,7.22,147.0,8.22,12.33,47.59359,-54.27349
2022-11-17 06:24:00+00:00,166.0,7.23,167.0,8.01,12.33,47.59359,-54.27349
2022-11-17 06:34:00+00:00,168.0,7.15,162.0,8.57,12.33,47.59359,-54.27349
2022-11-17 06:44:00+00:00,161.0,7.68,164.0,9.16,12.33,47.59359,-54.27349
2022-11-17 06:54:00+00:00,130.0,6.57,123.0,8.67,12.33,47.59359,-54.27349
2022-11-17 07:04:00+00:00,141.0,7.19,143.0,8.07,12.33,47.59359,-54.27349
2022-11-17 07:14:00+00:00,162.0,7.81,167.0,8.38,12.33,47.59359,-54.27349
2022-11-17 07:24:00+00:00,154.0,8.07,157.0,8.84,12.33,47.59359,-54.27349
2022-11-17 07:34:00+00:00,149.0,7.81,146.0,8.81,12.33,47.59359,-54.27349
2022-11-17 07:44:00+00:00,152.0,9.67,152.0,10.89,12.33,47.59359,-54.27349
2022-11-17 07:54:00+00:00,151.0,7.38,153.0,8.98,12.33,47.59359,-54.27349
2022-11-17 08:04:00+00:00,156.0,8.83,160.0,10.17,12.33,47.59359,-54.27349
2022-11-17 08:14:00+00:00,144.0,8.39,152.0,9.43,12.33,47.59359,-54.27349
2022-11-17 08:24:00+00:00,142.0,8.79,140.0,9.69,12.33,47.59359,-54.27349
2022-11-17 08:34:00+00:00,138.0,6.46,140.0,7.95,12.33,47.59359,-54.27349
2022-11-17 08:44:00+00:00,142.0,7.21,145.0,8.5,12.33,47.59359,-54.27349
2022-11-17 08:54:00+00:00,143.0,7.51,139.0,9.19,12.33,47.59359,-54.27349
2022-11-17 09:04:00+00:00,136.0,5.3,127.0,6.5,12.33,47.59359,-54.27349
2022-11-17 09:14:00+00:00,135.0,6.19,131.0,7.11,12.33,47.59359,-54.27349
2022-11-17 09:24:00+00:00,126.0,5.89,128.0,7.38,12.33,47.59359,-54.27349
2022-11-17 09:34:00+00:00,129.0,5.95,122.0,7.27,12.33,47.59359,-54.27349
2022-11-17 09:44:00+00:00,134.0,5.79,134.0,7.25,12.33,47.59359,-54.27349
2022-11-17 09:54:00+00:00,143.0,5.34,162.0,6.91,12.33,47.59359,-54.27349
2022-11-17 10:04:00+00:00,155.0,5.21,164.0,5.89,12.33,47.59359,-54.27349
2022-11-17 10:14:00+00:00,170.0,7.38,166.0,10.26,12.33,47.59359,-54.27349
2022-11-17 10:24:00+00:00,155.0,8.11,163.0,10.49,12.33,47.59359,-54.27349
2022-11-17 10:34:00+00:00,153.0,8.41,151.0,9.26,12.33,47.59359,-54.27349
2022-11-17 10:44:00+00:00,140.0,8.7,143.0,10.47,12.33,47.59359,-54.27349
2022-11-17 10:54:00+00:00,153.0,8.62,152.0,10.25,12.33,47.59359,-54.27349
2022-11-17 11:04:00+00:00,150.0,8.08,158.0,10.42,12.33,47.59359,-54.27349
2022-11-17 11:14:00+00:00,147.0,9.93,145.0,11.46,12.33,47.59359,-54.27349
2022-11-17 11:24:00+00:00,157.0,9.9,159.0,12.14,12.33,47.59359,-54.27349
2022-11-17 11:34:00+00:00,149.0,8.64,151.0,10.32,12.33,47.59359,-54.27349
2022-11-17 11:44:00+00:00,158.0,6.53,164.0,7.75,12.33,47.59359,-54.27349
2022-11-17 11:54:00+00:00,147.0,4.79,148.0,5.53,12.33,47.59359,-54.27349
2022-11-17 12:04:00+00:00,196.0,5.46,187.0,10.62,12.33,47.59359,-54.27349
2022-11-17 12:14:00+00:00,173.0,6.28,188.0,9.09,12.25,47.59359,-54.27349
2022-11-17 12:24:00+00:00,170.0,8.84,172.0,10.66,12.25,47.59359,-54.27349
2022-11-17 12:34:00+00:00,173.0,13.93,179.0,16.69,12.25,47.59359,-54.27349
2022-11-17 12:44:00+00:00,171.0,15.68,169.0,19.83,12.25,47.59359,-54.27349
2022-11-17 12:54:00+00:00,180.0,16.98,187.0,18.95,12.25,47.59359,-54.27349
2022-11-17 13:04:00+00:00,177.0,17.45,179.0,19.24,12.25,47.59359,-54.27349
2022-11-17 13:14:00+00:00,178.0,17.32,176.0,21.0,12.33,47.59359,-54.27349
2022-11-17 13:24:00+00:00,182.0,16.1,181.0,18.25,12.33,47.59359,-54.27349
2022-11-17 13:34:00+00:00,181.0,15.33,185.0,18.51,12.33,47.59359,-54.27349
2022-11-17 13:44:00+00:00,182.0,14.92,185.0,18.39,12.33,47.59359,-54.27349
2022-11-17 13:54:00+00:00,187.0,15.82,184.0,20.75,12.33,47.59359,-54.27349
2022-11-17 14:04:00+00:00,186.0,15.21,185.0,20.67,12.33,47.59359,-54.27349
2022-11-17 14:14:00+00:00,193.0,18.18,201.0,23.48,12.73,47.59359,-54.27349
2022-11-17 14:24:00+00:00,196.0,17.11,195.0,20.58,12.73,47.59359,-54.27349
2022-11-17 14:34:00+00:00,198.0,18.18,196.0,21.34,12.73,47.59359,-54.27349
2022-11-17 14:44:00+00:00,202.0,17.69,202.0,20.94,12.73,47.59359,-54.27349
2022-11-17 14:54:00+00:00,207.0,15.94,204.0,19.86,12.73,47.59359,-54.27349
2022-11-17 15:04:00+00:00,208.0,17.14,201.0,20.22,12.73,47.59359,-54.27349
2022-11-17 15:14:00+00:00,209.0,15.09,215.0,18.46,13.21,47.59359,-54.27349
2022-11-17 15:24:00+00:00,216.0,15.15,215.0,17.5,13.21,47.59359,-54.27349
2022-11-17 15:34:00+00:00,216.0,11.17,212.0,14.32,13.21,47.59359,-54.27349
2022-11-17 15:44:00+00:00,226.0,8.61,226.0,10.43,13.21,47.59359,-54.27349
2022-11-17 15:54:00+00:00,232.0,10.28,236.0,12.0,13.21,47.59359,-54.27349
2022-11-17 16:04:00+00:00,240.0,9.35,243.0,10.42,13.21,47.59359,-54.27349
2022-11-17 16:14:00+00:00,235.0,11.16,235.0,13.3,12.97,47.59359,-54.27349
2022-11-17 16:24:00+00:00,239.0,11.35,239.0,12.44,12.97,47.59359,-54.27349
2022-11-17 16:34:00+00:00,232.0,11.4,232.0,12.95,12.97,47.59359,-54.27349
2022-11-17 16:44:00+00:00,233.0,10.41,235.0,11.88,12.97,47.59359,-54.27349
2022-11-17 16:54:00+00:00,231.0,12.36,226.0,14.06,12.97,47.59359,-54.27349
2022-11-17 17:04:00+00:00,225.0,10.73,229.0,12.5,12.97,47.59359,-54.27349
2022-11-17 17:14:01+00:00,229.0,11.69,230.0,13.71,13.44,47.59359,-54.27349
2022-11-17 17:24:01+00:00,231.0,11.15,229.0,13.19,13.44,47.59359,-54.27349
2022-11-17 17:34:01+00:00,228.0,11.13,230.0,13.16,13.44,47.59359,-54.27349
2022-11-17 17:44:01+00:00,230.0,10.06,238.0,13.07,13.44,47.59359,-54.27349
2022-11-17 17:54:01+00:00,228.0,10.83,227.0,12.72,13.44,47.59359,-54.27349
2022-11-17 18:04:01+00:00,232.0,10.91,233.0,13.33,13.44,47.59359,-54.27349
2022-11-17 18:14:01+00:00,239.0,9.95,236.0,11.67,13.05,47.59359,-54.27349
2022-11-17 18:24:01+00:00,234.0,10.66,231.0,12.26,13.05,47.59359,-54.27349
2022-11-17 18:34:01+00:00,243.0,9.88,247.0,12.01,13.05,47.59359,-54.27349
2022-11-17 18:44:01+00:00,250.0,11.0,260.0,13.93,13.05,47.59359,-54.27349
2022-11-17 18:54:01+00:00,243.0,10.08,249.0,11.85,13.05,47.59359,-54.27349
2022-11-17 19:04:01+00:00,245.0,8.83,245.0,10.8,13.05,47.59359,-54.27349
2022-11-17 19:14:00+00:00,235.0,9.84,235.0,11.34,12.65,47.59359,-54.27349
2022-11-17 19:24:00+00:00,244.0,15.24,243.0,17.89,12.65,47.59359,-54.27349
2022-11-17 19:34:00+00:00,251.0,12.84,252.0,14.08,12.65,47.59359,-54.27349
2022-11-17 19:44:00+00:00,254.0,13.96,255.0,15.79,12.65,47.59359,-54.27349
2022-11-17 19:54:00+00:00,251.0,12.22,252.0,13.5,12.65,47.59359,-54.27349
2022-11-17 20:04:00+00:00,244.0,13.38,242.0,15.7,12.65,47.59359,-54.27349
2022-11-17 20:14:00+00:00,244.0,15.3,248.0,17.13,12.57,47.59359,-54.27349
2022-11-17 20:24:00+00:00,246.0,13.94,247.0,15.5,12.57,47.59359,-54.27349
2022-11-17 20:34:00+00:00,249.0,13.8,248.0,17.15,12.57,47.59359,-54.27349
2022-11-17 20:44:00+00:00,250.0,13.43,253.0,16.01,12.57,47.59359,-54.27349
2022-11-17 20:54:00+00:00,243.0,15.35,245.0,17.43,12.57,47.59359,-54.27349
2022-11-17 21:04:00+00:00,252.0,13.87,254.0,17.04,12.57,47.59359,-54.27349
2022-11-17 21:14:00+00:00,248.0,14.9,248.0,17.78,12.49,47.59359,-54.27349
2022-11-17 21:24:00+00:00,251.0,15.41,251.0,17.89,12.49,47.59359,-54.27349
2022-11-17 21:34:00+00:00,247.0,12.84,236.0,14.24,12.49,47.59359,-54.27349
2022-11-17 21:44:00+00:00,242.0,15.14,242.0,17.62,12.49,47.59359,-54.27349
2022-11-17 21:54:00+00:00,249.0,13.04,242.0,15.04,12.49,47.59359,-54.27349
2022-11-17 22:04:00+00:00,245.0,13.35,241.0,15.84,12.49,47.59359,-54.27349
2022-11-17 22:14:00+00:00,250.0,13.33,251.0,15.35,12.41,47.59359,-54.27349
2022-11-17 22:24:00+00:00,253.0,13.64,252.0,15.24,12.41,47.59359,-54.27349
2022-11-17 22:34:00+00:00,246.0,13.47,248.0,15.23,12.41,47.59359,-54.27349
2022-11-17 22:44:00+00:00,243.0,14.48,245.0,16.71,12.41,47.59359,-54.27349
2022-11-17 22:54:00+00:00,239.0,14.75,239.0,16.17,12.41,47.59359,-54.27349
2022-11-17 23:04:00+00:00,244.0,14.36,257.0,17.4,12.41,47.59359,-54.27349
2022-11-17 23:14:00+00:00,249.0,13.44,243.0,16.16,12.41,47.59359,-54.27349
2022-11-17 23:24:00+00:00,246.0,14.0,240.0,16.41,12.41,47.59359,-54.27349
2022-11-17 23:34:00+00:00,248.0,14.09,254.0,19.27,12.41,47.59359,-54.27349
2022-11-17 23:44:00+00:00,250.0,13.28,246.0,14.86,12.41,47.59359,-54.27349
2022-11-17 23:54:00+00:00,247.0,14.14,242.0,16.05,12.41,47.59359,-54.27349
